Key West NAF, FL

5:24 PM EDT on September 26, 2017 (GMT -0400)
Key West Naval Air Station

Weather History for KNQX - October, 2013

Change the Weather History Date:

Wednesday, October 9, 2013

  Actual Average Record
Temperature  
Mean Temperature 82 °F -  
Max Temperature 87 °F 85 °F 90 °F (2007)
Min Temperature 77 °F 76 °F 71 °F (1949)
Cooling Degree Days 16    
Growing Degree Days 32 (Base 50)    
Moisture  
Dew Point 70 °F    
Average Humidity 70    
Maximum Humidity 84    
Minimum Humidity 49    
Precipitation  
Precipitation 0.00 in - - ()
Sea Level Pressure  
Sea Level Pressure 29.96 in    
Wind  
Wind Speed 4 mph (NNW)    
Max Wind Speed 7 mph    
Max Gust Speed -    
Visibility 10 miles    
Events      
Averages and records for this station are not official NWS values.
T = Trace of Precipitation, MM = Missing Value Source: NWS Daily Summary

Daily Weather History Graph

Daily Weather History Graph

Search for Another Location

Airport or City:

Trip Planner

Search our weather history database for the weather conditions in past years. The results will help you decide how hot, cold, wet, or windy it might be!

Date:

Astronomy

Oct. 09, 2013 Rise Set
Actual Time 7:22 AM EDT 7:05 PM EDT
Civil Twilight 6:59 AM EDT 7:28 PM EDT
Nautical Twilight 6:32 AM EDT 7:54 PM EDT
Astronomical Twilight 6:06 AM EDT 8:21 PM EDT
Moon 11:52 AM EDT (10/9) 11:02 PM EDT (10/9)
Length of Visible Light 12h 28m
Length of Day
11h 43m
Waxing Crescent, 25% of the Moon is Illuminated
Oct 9
Waxing Crescent
Oct 11
First Quarter
Oct 18
Full
Oct 26
Last Quarter
Nov 3
New

Hourly Weather History & Observations

Time (EDT) Temp. Heat Index Dew Point Humidity Pressure Visibility Wind Dir Wind Speed Gust Speed Precip Events Conditions
12:53 AM 80.1 °F 84.2 °F 73.0 °F 79% 29.96 in 10.0 mi NW 4.6 mph - N/A   Partly Cloudy
1:53 AM 80.1 °F 83.8 °F 72.0 °F 76% 29.95 in 10.0 mi WNW 3.5 mph - N/A   Clear
2:53 AM 78.1 °F - 73.0 °F 84% 29.94 in 10.0 mi Calm Calm - N/A   Clear
3:53 AM 79.0 °F - 72.0 °F 79% 29.93 in 10.0 mi WNW 3.5 mph - N/A   Mostly Cloudy
4:53 AM 79.0 °F - 71.1 °F 77% 29.92 in 10.0 mi Calm Calm - N/A   Partly Cloudy
5:53 AM 77.0 °F - 71.1 °F 82% 29.94 in 10.0 mi West 3.5 mph - N/A   Clear
6:03 AM 78.8 °F - 71.6 °F 78% 29.94 in 10.0 mi West 3.5 mph - N/A   Scattered Clouds
6:53 AM 77.0 °F - 71.1 °F 82% 29.95 in 10.0 mi Calm Calm - N/A   Scattered Clouds
7:53 AM 79.0 °F - 72.0 °F 79% 29.96 in 10.0 mi Calm Calm - N/A   Scattered Clouds
8:53 AM 81.0 °F 84.9 °F 71.1 °F 72% 29.97 in 10.0 mi WNW 5.8 mph - N/A   Mostly Cloudy
9:53 AM 82.0 °F 85.5 °F 69.1 °F 65% 30.00 in 10.0 mi NW 5.8 mph - N/A   Mostly Cloudy
10:53 AM 84.0 °F 86.5 °F 66.9 °F 56% 30.00 in 10.0 mi Variable 3.5 mph - N/A   Mostly Cloudy
11:53 AM 84.9 °F 88.2 °F 68.0 °F 57% 30.00 in 10.0 mi North 4.6 mph - N/A   Mostly Cloudy
12:53 PM 84.0 °F 86.3 °F 66.0 °F 55% 29.99 in 10.0 mi NW 6.9 mph - N/A   Mostly Cloudy
1:53 PM 86.0 °F 87.6 °F 64.9 °F 49% 29.98 in 10.0 mi North 5.8 mph - N/A   Mostly Cloudy
2:53 PM 84.0 °F 84.9 °F 63.0 °F 49% 29.96 in 10.0 mi North 5.8 mph - N/A   Mostly Cloudy
3:53 PM 84.9 °F 87.6 °F 66.9 °F 55% 29.95 in 10.0 mi North 6.9 mph - N/A   Mostly Cloudy
4:53 PM 82.9 °F 87.0 °F 70.0 °F 65% 29.94 in 10.0 mi North 5.8 mph - N/A   Mostly Cloudy
5:53 PM 84.9 °F 89.4 °F 70.0 °F 61% 29.94 in 10.0 mi North 5.8 mph - N/A   Mostly Cloudy
6:53 PM 81.0 °F 84.4 °F 70.0 °F 69% 29.95 in 10.0 mi North 4.6 mph - N/A   Mostly Cloudy
7:53 PM 81.0 °F 84.9 °F 71.1 °F 72% 29.96 in 10.0 mi North 3.5 mph - N/A   Mostly Cloudy
8:53 PM 81.0 °F 85.8 °F 73.0 °F 77% 29.96 in 10.0 mi NNE 4.6 mph - N/A   Mostly Cloudy
9:53 PM 80.1 °F 84.2 °F 73.0 °F 79% 29.98 in 10.0 mi North 4.6 mph - N/A   Scattered Clouds
10:53 PM 80.1 °F 84.2 °F 73.0 °F 79% 30.00 in 10.0 mi North 5.8 mph - N/A   Clear
11:53 PM 81.0 °F 85.8 °F 73.0 °F 77% 29.99 in 10.0 mi North 4.6 mph - N/A   Clear